Temperature
21 20 20 21 26 29 28 28 28 28 27 26 25 26 25 25 24 22 19 19 19 19 18 18 18 18 18 18 18 18 18 18 18 18 18 18 18 18 18 18 18 18 18 18 18 18 18 18 18
20 20 20 24 29 29 28 28 28 27 26 25 25 25 25 23 21 20 19 19 19 19 18 18 18 18 18 18 18 18 18 18 18 18 18 18 18 18 18 18 18 18 18 18 18 18 18 18 18
20 20 24 29 30 29 28 28 27 26 25 25 25 24 23 22 20 20 19 19 19 18 18 18 18 18 18 18 18 18 18 18 18 18 18 18 18 18 18 18 18 18 18 18 18 18 18 18 18
21 23 26 30 29 29 29 29 28 27 26 25 25 24 22 20 20 19 19 19 19 18 18 18 18 18 18 18 18 18 18 18 18 18 18 18 18 18 18 18 18 18 18 18 18 18 18 18 18
22 27 30 30 30 29 29 28 28 28 27 26 25 24 22 20 19 19 19 19 19 18 18 18 18 18 18 18 18 18 18 18 18 18 18 18 18 18 18 18 18 18 18 18 18 18 18 18 18
26 30 31 30 30 30 29 28 28 28 27 25 25 24 21 19 19 19 19 19 19 18 18 18 18 18 18 18 18 18 18 18 18 18 18 18 18 18 18 18 18 18 18 18 18 18 18 18 18
28 31 31 31 30 30 30 29 28 28 27 26 25 24 21 20 19 19 19 19 19 18 18 18 18 18 18 18 18 18 18 18 18 18 18 18 18 18 18 18 18 18 18 18 18 18 18 18 18
27 31 32 31 31 30 30 29 28 28 27 25 25 25 22 20 19 19 19 18 18 18 18 18 18 18 17 18 18 18 18 18 18 18 18 18 18 18 18 18 18 18 18 18 18 18 18 18 18
27 31 31 31 31 30 30 29 28 27 26 25 24 24 22 20 19 19 19 18 18 18 18 18 18 18 18 18 18 18 18 18 18 18 18 18 17 17 17 17 18 18 18 18 18 18 18 18 18
30 32 31 32 32 31 30 29 28 27 27 25 24 22 21 20 19 20 19 19 18 18 18 18 18 18 18 18 17 17 17 17 17 17 17 17 17 17 17 17 18 18 18 18 18 18 18 17 17
31 31 32 32 31 31 30 29 29 29 28 27 24 22 20 20 20 20 20 19 19 19 18 18 18 18 18 18 18 18 18 17 17 17 17 17 17 17 17 17 17 17 17 17 17 17 17 17 17
31 31 31 31 31 30 30 30 29 29 28 26 24 22 21 21 21 20 20 20 19 19 18 18 18 18 18 18 18 18 18 18 18 18 18 17 18 17 17 17 17 17 17 17 17 17 17 17 17
31 31 31 31 31 30 30 30 29 28 27 25 24 22 22 21 21 21 20 20 19 19 18 18 18 18 18 18 18 18 18 18 18 18 18 18 18 18 17 17 17 17 17 17 17 17 17 17 17
31 31 31 31 31 30 30 30 29 27 26 25 24 23 22 22 21 20 20 19 19 19 18 18 18 18 18 18 18 18 18 18 18 18 18 18 18 18 17 17 18 18 18 18 17 17 17 17 17
30 31 32 31 31 30 31 30 29 27 26 25 24 23 22 22 21 21 20 20 19 19 19 18 18 18 18 18 18 18 18 18 18 18 18 18 18 18 18 18 18 18 18 17 17 17 17 18 18
32 32 31 31 31 30 31 30 29 27 26 25 24 23 22 22 22 21 20 20 19 19 19 19 18 18 18 18 18 18 18 18 18 18 18 18 18 18 18 18 18 18 18 18 18 18 18 18 18
32 31 31 31 31 31 31 30 29 27 27 26 25 24 23 22 22 21 21 20 20 19 19 19 19 18 18 18 18 18 18 18 18 18 18 18 18 18 18 18 18 18 18 18 18 18 18 18 18
31 31 31 31 31 31 31 31 29 27 27 26 25 24 23 23 22 21 21 20 20 19 19 19 19 19 18 18 18 18 18 18 18 18 18 18 18 18 18 18 18 18 18 18 18 18 18 18 18
31 31 31 31 31 31 30 30 30 28 27 27 26 25 24 23 23 22 21 21 20 20 19 19 19 19 19 18 18 18 18 18 18 18 18 18 18 18 18 18 18 18 18 18 18 18 18 18 18
31 31 31 31 30 30 30 30 30 29 28 27 26 25 25 24 23 22 21 21 20 20 20 19 19 19 19 19 19 18 18 18 18 18 18 18 18 18 18 18 18 18 18 18 18 18 18 18 18
31 31 31 30 30 30 30 30 30 29 28 27 27 26 25 25 24 23 22 21 21 20 20 20 20 19 19 19 19 18 18 18 18 18 18 18 18 18 18 18 18 18 18 18 18 18 18 18 18
30 31 30 30 30 30 30 30 30 30 29 29 28 27 26 25 24 23 22 22 21 21 20 20 20 20 20 19 19 19 19 19 19 19 19 19 19 18 18 18 18 18 18 18 18 18 18 18 18
30 30 30 30 30 30 30 30 31 30 30 29 29 27 27 26 25 24 23 22 22 21 21 20 20 20 20 20 19 19 19 19 19 19 19 19 19 18 18 18 18 18 18 18 18 18 18 18 18
30 30 29 30 30 29 30 30 30 31 30 30 29 28 27 26 25 24 23 23 22 21 21 20 20 20 20 20 20 20 19 19 19 19 19 19 19 18 18 18 18 18 18 18 18 18 18 18 18
30 29 29 28 29 29 30 29 30 30 30 30 29 28 27 26 25 24 23 23 22 22 21 21 20 20 20 20 20 20 20 19 19 19 19 19 19 19 19 18 18 18 18 18 18 18 18 17 17
30 30 29 28 29 30 29 29 30 30 29 28 28 28 27 26 26 25 24 23 22 22 21 21 21 20 20 20 20 20 20 19 19 19 19 19 19 19 19 19 19 18 18 18 18 18 18 18 17
29 30 31 30 29 29 30 30 30 29 29 29 28 27 26 26 25 25 24 23 22 22 21 21 21 20 20 20 20 20 20 19 19 19 19 19 19 19 18 19 19 18 18 18 18 18 18 17 17
30 30 30 29 28 28 29 29 30 29 29 29 28 27 26 25 25 25 24 23 23 22 21 21 21 20 20 20 20 20 20 20 19 19 19 19 19 19 18 18 18 18 18 18 18 18 18 18 17
28 29 29 29 29 28 28 29 30 29 29 29 28 27 26 25 25 24 24 23 23 22 22 21 21 20 20 20 20 20 20 20 19 19 19 19 19 18 18 18 18 18 18 18 18 18 17 17 17
29 29 29 28 28 28 28 29 29 29 29 28 28 26 25 25 24 24 24 23 23 22 22 21 20 20 20 20 19 19 19 19 19 19 19 19 19 18 18 18 18 18 17 17 17 17 17 17 17
Wind_Speed
11 8 5 4 4 4 11 9 8 7 6 7 7 5 6 7 6 7 7 9 10 11 13 13 15 16 17 18 19 19 19 19 18 17 17 17 17 17 17 16 16 15 15 15 14 14 13 13 12
8 5 5 4 1 9 11 9 9 9 7 6 6 6 7 8 7 8 8 10 12 12 13 14 17 17 17 18 18 19 19 18 17 17 16 16 16 16 16 15 14 14 14 14 13 13 12 12 11
6 5 4 1 8 11 10 9 9 8 6 4 5 6 6 6 6 6 10 13 13 13 14 16 17 17 17 17 17 18 18 18 17 16 15 15 15 15 14 13 13 13 13 12 12 12 11 10 10
4 4 4 4 13 11 9 8 8 7 7 5 6 8 6 6 4 9 13 14 13 14 15 18 17 17 16 16 16 16 17 17 16 15 14 14 13 13 13 12 12 11 11 11 11 11 10 9 9
5 3 2 10 13 10 9 8 6 6 6 6 7 9 8 7 9 13 13 13 13 13 14 17 16 16 16 15 15 15 16 16 15 14 13 12 12 12 11 11 10 10 10 10 9 9 9 8 8
3 2 5 11 12 9 8 6 6 7 8 7 8 10 7 8 11 12 13 12 12 13 13 16 16 15 15 15 14 15 15 14 14 13 12 11 11 10 10 9 9 9 8 8 8 8 7 7 6
3 3 7 9 9 9 7 5 5 6 7 7 7 8 8 10 12 12 12 12 11 12 12 13 15 15 14 14 13 14 13 13 12 12 11 10 10 9 9 8 8 7 7 7 7 6 6 5 5
4 1 6 8 8 9 7 5 6 6 8 8 5 6 9 13 13 13 12 11 10 10 11 12 12 12 13 13 13 12 12 11 11 11 10 10 10 9 9 8 7 6 6 6 6 5 5 5 5
4 1 7 8 7 7 6 6 5 6 9 7 5 7 14 17 15 14 13 11 10 9 9 10 11 10 11 11 13 12 11 11 11 10 10 9 9 9 9 7 7 6 5 5 5 4 5 5 6
3 4 8 6 5 5 5 5 6 6 8 8 10 12 17 17 16 14 14 13 12 11 10 9 9 9 10 9 10 9 9 9 8 7 8 6 6 5 6 8 6 5 5 6 5 5 6 7 6
1 4 5 4 4 3 5 5 5 5 5 7 13 17 18 17 15 14 13 13 12 12 10 10 8 8 8 6 7 6 6 6 6 7 6 5 5 6 6 6 7 6 7 6 7 8 5 4 2
1 2 2 2 3 3 4 5 5 3 6 8 14 19 19 17 15 14 13 13 12 12 11 10 9 8 7 6 5 5 5 4 4 6 6 5 3 3 4 3 4 4 4 3 3 3 3 2 2
1 2 2 2 2 3 4 5 5 5 8 12 17 18 18 16 15 13 12 12 12 12 12 10 9 8 7 5 4 4 4 4 4 4 4 4 3 3 3 2 2 3 3 4 3 3 3 3 4
1 1 2 2 3 4 5 5 4 6 10 14 16 17 16 15 15 13 12 12 12 12 11 10 10 9 7 6 5 4 4 3 4 4 4 4 3 2 2 3 2 2 3 2 3 3 3 3 2
2 2 2 3 2 3 4 4 4 9 12 14 15 15 15 14 14 13 13 12 12 12 11 11 10 10 9 8 7 5 5 5 3 3 4 4 4 3 2 2 2 2 2 3 2 2 3 3 3
5 5 4 3 2 3 5 3 7 10 12 12 13 14 14 14 14 13 13 12 12 12 11 11 10 10 10 8 7 5 5 4 3 4 4 5 4 4 3 2 2 2 2 3 2 3 3 2 2
7 6 3 3 3 3 5 2 7 9 10 11 12 13 13 13 14 13 14 13 12 12 11 11 10 10 10 9 7 6 5 5 4 5 5 5 5 5 4 3 2 3 3 3 3 3 3 3 2
6 5 4 3 3 4 5 3 6 9 9 10 12 12 13 13 14 14 14 13 13 12 12 11 11 11 10 8 7 6 6 6 5 5 5 5 6 6 5 4 3 3 2 3 2 2 3 3 3
6 7 5 2 2 4 5 4 5 9 9 10 11 12 13 13 13 13 14 14 13 13 12 12 12 11 9 8 8 7 7 6 6 6 6 7 7 6 5 4 3 3 3 2 3 3 4 4 2
8 8 6 2 2 4 4 5 5 8 10 10 11 13 13 13 13 13 14 14 14 14 14 13 13 12 12 9 8 6 6 6 6 5 6 7 7 7 7 6 4 4 3 3 4 4 3 3 3
9 9 7 5 4 6 5 6 7 8 9 9 11 12 13 13 14 15 15 15 14 14 15 14 14 13 13 11 9 7 6 6 6 6 6 7 8 8 7 6 5 4 5 4 4 4 5 3 3
9 6 6 7 8 7 7 7 7 8 9 10 11 12 13 13 14 14 15 15 15 15 14 14 14 14 13 12 11 11 8 8 7 6 6 7 8 8 8 7 6 6 5 4 5 5 4 5 4
7 4 6 8 9 9 9 9 7 8 9 9 11 12 12 13 14 15 15 15 14 14 14 13 14 14 13 13 12 11 10 8 7 6 6 7 7 8 8 8 7 6 6 6 5 4 5 5 5
5 5 5 8 9 12 10 10 8 7 8 7 8 10 11 12 13 14 14 14 14 13 13 13 13 14 14 14 13 13 12 10 8 8 7 7 7 7 9 8 7 7 6 6 6 6 7 6 5
9 9 8 9 9 9 5 8 6 3 4 5 6 8 9 10 12 13 14 14 14 14 14 14 14 14 14 14 14 13 13 11 11 10 9 8 7 7 7 8 7 7 7 7 6 6 6 6 6
10 12 10 9 9 7 6 8 4 2 3 3 4 5 6 9 10 12 13 14 14 14 15 14 14 14 14 14 13 12 12 11 10 10 9 8 7 7 6 7 7 8 8 7 7 6 7 6 7
9 10 10 11 12 11 7 6 5 5 5 4 4 4 5 6 8 10 11 13 13 14 14 14 14 14 13 14 13 12 12 12 10 9 9 8 7 7 7 7 7 7 8 8 7 6 7 6 7
9 8 8 11 10 12 10 10 7 6 5 4 4 4 4 5 6 8 9 11 12 13 13 13 13 13 13 13 12 11 11 11 10 9 9 8 8 7 7 8 8 8 8 8 8 7 7 7 7
9 10 9 10 10 11 11 6 1 3 4 3 3 3 3 4 5 6 7 8 10 11 11 12 12 12 12 12 11 11 10 10 10 9 9 9 8 8 8 8 8 8 8 8 8 8 8 8 8
10 11 12 11 10 11 12 7 2 1 2 2 2 1 1 2 3 5 5 6 8 10 10 11 11 12 11 11 10 10 9 9 9 10 9 9 9 9 8 8 9 9 9 8 9 9 9 8 8
Wind_Direction
175 182 209 236 232 83 66 62 64 72 73 67 66 64 64 45 37 84 111 127 125 127 127 129 124 123 124 124 123 122 122 121 120 119 119 119 118 116 114 115 115 115 114 113 111 108 108 107 106
173 186 229 242 18 72 68 62 66 66 87 99 83 76 71 66 64 101 124 128 132 127 129 127 126 124 124 123 123 124 123 121 120 121 120 120 120 119 118 118 117 117 117 115 113 111 110 109 108
184 224 259 276 54 58 66 69 81 91 97 93 90 69 63 75 91 112 126 135 131 124 123 121 125 124 124 123 124 125 125 124 123 121 120 121 122 122 122 121 118 118 118 118 116 113 111 109 108
214 228 234 67 67 63 70 84 100 108 99 89 101 91 81 75 97 120 129 136 130 127 126 124 128 126 124 124 125 126 127 126 125 124 124 124 125 124 123 122 120 120 121 121 119 117 114 112 112
243 259 107 74 69 70 78 87 98 93 96 99 99 100 91 84 108 122 131 134 130 126 126 126 129 129 128 127 127 129 130 130 129 128 127 127 127 125 124 123 123 122 124 124 126 125 121 118 119
253 258 66 70 72 79 89 98 94 90 100 108 111 107 93 115 123 127 130 131 127 128 128 128 130 130 130 130 130 131 132 133 133 132 132 133 131 129 127 126 126 124 126 130 131 132 129 125 124
310 18 65 70 75 81 85 92 82 96 107 111 118 107 117 129 129 131 129 129 129 130 131 133 137 136 135 134 135 134 135 135 135 135 136 136 135 135 133 132 132 131 132 134 136 135 133 131 132
299 310 75 70 68 76 96 99 85 88 98 114 125 120 138 140 139 135 132 131 130 132 133 136 137 137 141 139 138 138 138 136 136 138 140 144 147 146 148 152 142 144 143 143 145 143 141 141 142
271 27 65 61 57 78 109 111 98 104 118 117 102 104 132 141 143 141 139 137 137 138 140 141 137 141 142 141 141 147 146 143 149 148 152 163 159 152 160 137 139 152 157 160 161 156 157 164 164
273 53 58 50 49 79 116 111 124 136 132 126 119 117 132 145 150 151 150 150 149 148 147 144 144 145 145 143 144 155 154 151 156 150 156 154 146 151 144 135 158 167 170 175 176 177 188 206 175
329 33 42 49 56 85 121 122 132 139 129 144 147 145 150 154 157 157 156 155 153 152 154 156 151 150 147 147 152 150 143 148 155 153 158 155 160 158 155 156 165 174 185 184 170 192 199 190 177
310 33 26 44 77 100 113 125 127 113 87 132 148 151 156 162 164 164 162 161 157 159 162 161 159 160 161 157 150 155 154 155 156 158 174 168 166 164 151 166 164 174 180 186 191 190 187 189 201
223 24 41 73 120 111 117 118 112 110 113 130 143 154 162 165 166 167 165 163 164 167 168 168 167 166 166 168 174 162 161 168 166 174 182 186 179 173 160 165 181 188 182 191 197 201 191 202 203
1 7 64 89 123 135 126 115 119 120 135 139 149 159 165 167 168 167 170 172 173 173 173 172 176 174 174 180 186 177 181 182 189 186 186 201 191 179 187 183 186 192 201 200 203 192 200 218 205
235 211 142 108 139 159 168 132 116 135 147 151 158 163 167 171 174 176 178 179 179 178 177 178 182 182 184 190 192 186 189 189 200 193 193 204 200 187 204 206 204 198 193 189 203 195 205 210 205
221 222 202 136 157 175 221 124 121 144 158 161 165 168 174 179 183 184 183 184 183 182 181 186 188 185 189 194 194 192 194 195 204 204 202 208 212 212 225 219 211 197 211 200 199 214 211 207 218
223 234 230 158 179 199 224 144 130 156 167 169 172 174 178 183 191 190 190 187 187 187 185 187 191 189 192 191 193 200 196 202 209 213 213 204 207 212 223 220 204 210 216 222 224 197 223 216 232
243 248 243 233 176 214 226 197 151 171 178 179 181 181 182 188 193 191 193 191 189 189 189 189 191 192 191 190 192 201 204 206 210 213 212 211 208 212 226 213 207 225 221 224 220 214 233 245 241
274 260 254 251 212 232 235 223 188 181 190 188 189 190 190 193 189 187 190 192 191 191 192 193 195 190 193 195 198 200 204 208 208 211 207 209 214 210 220 231 201 224 225 233 225 227 220 232 230
250 251 244 224 206 244 249 242 211 197 204 201 197 197 198 194 188 187 190 192 193 193 195 196 198 196 198 200 204 207 211 213 210 214 202 210 212 213 211 220 225 216 222 227 226 230 243 236 216
244 253 256 259 232 220 240 239 215 201 206 204 207 205 202 199 194 189 192 194 195 195 197 199 199 199 202 201 203 202 202 215 209 207 206 210 212 215 223 218 228 229 232 226 227 228 233 238 227
247 248 250 247 245 241 239 254 216 200 201 205 208 207 206 203 200 195 194 196 198 197 196 198 197 200 201 202 208 208 210 215 215 212 206 206 211 217 219 222 222 226 232 226 230 222 231 238 241
258 252 240 244 250 257 238 253 235 199 213 212 208 209 209 205 201 199 198 197 198 197 195 196 196 200 201 205 207 211 218 220 218 214 211 219 213 217 221 220 221 221 228 227 234 231 236 233 241
214 205 216 237 245 247 242 249 248 224 224 217 207 206 207 205 202 201 200 194 196 195 195 195 195 200 201 205 208 212 219 220 222 218 217 217 217 216 217 220 221 223 226 223 226 231 230 236 241
212 227 233 233 232 243 220 244 257 238 230 223 212 205 203 203 202 199 197 194 195 195 196 196 195 199 202 204 208 210 216 216 220 223 221 226 226 219 214 220 219 222 223 225 225 225 236 231 233
224 238 246 257 259 251 207 240 240 210 218 222 219 204 202 203 201 199 197 197 197 197 197 197 196 200 201 203 207 210 212 216 219 218 228 225 231 230 215 216 220 223 223 224 222 229 230 231 233
225 235 252 259 265 269 247 240 220 208 217 209 201 189 197 204 203 202 199 200 199 200 199 199 197 200 202 202 202 206 208 215 218 214 219 227 226 225 215 216 220 221 222 225 225 230 233 230 234
247 241 242 248 255 259 249 243 238 210 224 211 205 208 204 203 202 202 201 200 200 199 200 202 199 200 203 202 202 202 204 209 213 215 215 220 219 218 216 216 220 222 222 225 229 232 231 233 235
211 223 236 247 257 261 262 249 222 219 227 228 226 206 198 201 200 194 196 197 197 197 196 199 198 198 200 203 203 204 202 205 208 212 215 214 215 214 217 220 222 224 225 226 227 235 236 234 236
242 237 233 242 246 250 266 260 120 212 244 244 245 228 213 197 195 189 185 189 195 197 196 196 197 199 200 199 199 201 202 203 207 209 212 213 213 216 218 220 223 227 228 227 229 233 235 233 234
Height
1497 1497 1498 1499 1493 1487 1492 1491 1488 1491 1494 1499 1500 1500 1501 1504 1506 1516 1519 1518 1519 1520 1521 1522 1523 1526 1528 1529 1531 1533 1535 1537 1539 1541 1543 1545 1547 1549 1550 1552 1554 1555 1556 1557 1558 1559 1560 1561 1562
1498 1498 1500 1497 1486 1493 1497 1491 1492 1495 1500 1502 1503 1504 1505 1509 1513 1516 1518 1520 1521 1522 1523 1524 1525 1528 1530 1532 1534 1536 1538 1540 1542 1544 1546 1548 1550 1551 1553 1554 1556 1557 1558 1559 1560 1561 1562 1562 1563
1499 1499 1499 1488 1486 1493 1497 1493 1496 1499 1502 1503 1505 1507 1510 1514 1517 1518 1520 1521 1523 1524 1525 1526 1528 1530 1533 1535 1537 1539 1541 1543 1545 1547 1548 1550 1552 1554 1555 1557 1558 1559 1560 1561 1562 1562 1563 1564 1564
1501 1501 1496 1486 1491 1491 1492 1494 1497 1500 1503 1504 1505 1509 1514 1518 1519 1520 1522 1524 1525 1527 1529 1529 1531 1533 1535 1537 1540 1542 1544 1545 1547 1549 1551 1553 1554 1556 1557 1558 1560 1561 1561 1562 1563 1564 1564 1565 1566
1501 1497 1486 1487 1490 1491 1492 1496 1498 1498 1502 1505 1506 1510 1516 1520 1520 1522 1524 1526 1528 1529 1531 1532 1533 1536 1538 1540 1542 1544 1546 1548 1549 1551 1553 1555 1556 1558 1559 1560 1561 1562 1563 1563 1564 1565 1566 1566 1567
1500 1490 1487 1492 1493 1491 1494 1497 1498 1500 1504 1507 1509 1512 1519 1522 1523 1524 1526 1528 1530 1532 1533 1534 1536 1538 1540 1542 1544 1546 1548 1550 1551 1553 1555 1556 1558 1559 1560 1561 1562 1563 1564 1565 1565 1566 1567 1567 1568
1498 1487 1488 1489 1492 1492 1495 1498 1498 1500 1504 1508 1510 1513 1520 1523 1525 1526 1528 1530 1532 1534 1536 1537 1539 1540 1543 1544 1546 1548 1550 1551 1553 1555 1556 1558 1559 1560 1561 1562 1563 1564 1565 1566 1567 1567 1568 1568 1569
1499 1489 1486 1487 1491 1493 1496 1499 1501 1502 1506 1511 1512 1513 1519 1524 1526 1528 1530 1532 1534 1536 1538 1540 1542 1543 1545 1547 1548 1550 1552 1553 1555 1556 1557 1558 1560 1561 1562 1563 1564 1565 1566 1567 1567 1568 1569 1569 1570
1499 1489 1490 1490 1492 1493 1496 1498 1503 1506 1508 1511 1513 1515 1519 1523 1526 1529 1531 1533 1535 1537 1539 1541 1543 1545 1547 1549 1550 1552 1553 1555 1556 1558 1558 1560 1562 1563 1564 1565 1565 1566 1567 1567 1568 1569 1569 1570 1570
1496 1489 1491 1490 1490 1492 1496 1498 1502 1505 1508 1512 1515 1518 1521 1524 1527 1530 1532 1534 1536 1538 1540 1542 1544 1546 1549 1551 1552 1554 1556 1557 1558 1559 1560 1562 1562 1564 1565 1565 1566 1566 1567 1568 1568 1569 1570 1571 1572
1494 1491 1491 1491 1493 1494 1495 1499 1502 1502 1504 1509 1514 1518 1522 1525 1528 1531 1533 1535 1537 1539 1541 1543 1545 1547 1550 1551 1553 1555 1557 1557 1559 1560 1561 1562 1563 1564 1565 1566 1566 1567 1568 1569 1569 1570 1571 1572 1573
1494 1493 1493 1493 1494 1495 1496 1498 1501 1502 1506 1509 1513 1517 1521 1525 1528 1531 1533 1536 1538 1540 1542 1544 1546 1548 1550 1552 1554 1555 1557 1558 1560 1560 1561 1563 1564 1565 1566 1566 1567 1567 1568 1569 1570 1570 1571 1571 1572
1494 1493 1494 1494 1494 1496 1497 1498 1501 1505 1508 1511 1514 1518 1522 1525 1528 1531 1534 1537 1539 1541 1543 1545 1546 1548 1549 1551 1554 1556 1557 1559 1560 1561 1562 1563 1564 1565 1565 1566 1566 1567 1568 1568 1568 1569 1570 1570 1571
1494 1494 1493 1494 1494 1496 1497 1499 1502 1506 1509 1512 1515 1519 1522 1525 1528 1531 1534 1536 1538 1540 1543 1545 1546 1548 1549 1551 1554 1556 1557 1558 1560 1561 1562 1562 1564 1564 1565 1565 1566 1567 1567 1568 1568 1569 1569 1569 1570
1495 1493 1492 1493 1494 1496 1496 1498 1501 1506 1510 1513 1516 1519 1522 1525 1528 1531 1533 1535 1538 1540 1542 1544 1546 1548 1549 1552 1554 1556 1557 1558 1560 1561 1561 1562 1563 1564 1565 1566 1566 1566 1566 1566 1567 1567 1568 1568 1569
1492 1491 1493 1493 1494 1495 1496 1500 1501 1506 1509 1512 1515 1518 1522 1524 1527 1530 1532 1534 1537 1539 1541 1543 1546 1547 1549 1551 1553 1555 1557 1558 1559 1560 1561 1561 1562 1563 1564 1565 1566 1565 1566 1566 1566 1567 1567 1567 1568
1489 1492 1492 1492 1493 1493 1494 1496 1501 1506 1508 1511 1514 1517 1520 1523 1525 1528 1530 1533 1535 1537 1539 1542 1544 1546 1548 1550 1552 1554 1555 1556 1558 1559 1560 1561 1561 1562 1563 1564 1564 1564 1565 1565 1566 1566 1566 1566 1567
1493 1490 1491 1492 1491 1492 1493 1493 1498 1504 1506 1508 1512 1515 1518 1520 1523 1525 1528 1531 1533 1535 1538 1540 1542 1544 1547 1549 1551 1553 1554 1555 1556 1558 1558 1559 1560 1561 1562 1563 1563 1563 1564 1564 1564 1564 1564 1565 1565
1488 1490 1491 1490 1489 1492 1492 1493 1495 1501 1504 1506 1509 1512 1515 1517 1521 1523 1526 1529 1531 1533 1536 1538 1540 1542 1545 1547 1549 1551 1553 1554 1555 1556 1557 1558 1559 1560 1560 1562 1561 1561 1562 1562 1563 1563 1563 1564 1564
1490 1491 1491 1490 1490 1492 1492 1492 1491 1496 1500 1502 1506 1509 1512 1515 1518 1520 1523 1526 1528 1530 1533 1535 1538 1540 1543 1545 1547 1549 1551 1552 1553 1555 1555 1556 1557 1558 1559 1559 1560 1560 1560 1560 1561 1561 1562 1562 1563
1489 1489 1490 1492 1490 1490 1493 1494 1491 1492 1496 1500 1502 1505 1508 1511 1513 1516 1519 1522 1525 1527 1529 1532 1535 1537 1540 1543 1545 1547 1548 1550 1551 1552 1553 1554 1555 1556 1557 1558 1558 1558 1559 1559 1559 1559 1560 1561 1561
1490 1484 1488 1491 1494 1492 1492 1498 1489 1486 1490 1494 1497 1500 1503 1506 1510 1513 1516 1518 1521 1524 1526 1529 1531 1534 1537 1539 1542 1544 1546 1548 1549 1550 1552 1552 1553 1554 1555 1555 1556 1556 1557 1557 1557 1558 1558 1558 1559
1485 1484 1486 1488 1490 1493 1489 1494 1486 1482 1487 1488 1491 1495 1498 1502 1505 1508 1511 1514 1518 1521 1523 1526 1528 1531 1533 1536 1538 1540 1543 1545 1547 1548 1549 1550 1551 1551 1552 1552 1553 1553 1554 1554 1554 1555 1555 1556 1556
1485 1487 1488 1488 1488 1501 1489 1493 1490 1478 1481 1482 1486 1490 1494 1498 1501 1505 1508 1511 1514 1517 1520 1522 1524 1526 1529 1532 1534 1536 1539 1541 1543 1544 1546 1547 1548 1548 1548 1549 1550 1550 1551 1551 1552 1552 1552 1553 1553
1485 1490 1498 1502 1500 1495 1483 1490 1485 1476 1478 1480 1483 1487 1491 1494 1497 1500 1504 1506 1509 1512 1515 1518 1520 1522 1525 1528 1530 1532 1535 1537 1538 1540 1542 1543 1545 1545 1545 1546 1546 1547 1548 1549 1549 1549 1550 1550 1550
1482 1483 1497 1506 1501 1488 1486 1488 1479 1475 1479 1481 1483 1485 1488 1490 1493 1496 1499 1502 1505 1508 1511 1514 1516 1518 1521 1523 1526 1528 1530 1533 1535 1536 1538 1540 1541 1542 1542 1542 1543 1544 1545 1546 1546 1547 1547 1547 1547
1481 1480 1475 1485 1489 1492 1483 1479 1476 1476 1477 1479 1481 1483 1485 1487 1490 1492 1495 1498 1501 1504 1506 1509 1511 1514 1516 1519 1521 1523 1526 1528 1530 1532 1533 1536 1536 1538 1538 1539 1540 1540 1541 1542 1543 1544 1544 1544 1544
1477 1475 1479 1484 1499 1499 1487 1482 1477 1476 1475 1476 1479 1481 1483 1486 1487 1490 1492 1494 1497 1500 1503 1506 1508 1509 1512 1514 1517 1519 1521 1523 1525 1527 1529 1531 1532 1533 1534 1535 1536 1537 1538 1538 1539 1540 1540 1540 1541
1480 1480 1480 1479 1481 1492 1493 1481 1466 1471 1473 1475 1477 1480 1481 1483 1485 1487 1489 1491 1494 1497 1499 1501 1504 1506 1508 1510 1512 1515 1517 1519 1521 1523 1525 1526 1528 1529 1530 1531 1532 1533 1534 1535 1535 1536 1537 1537 1537
1473 1474 1477 1485 1487 1483 1485 1479 1465 1469 1472 1475 1477 1479 1481 1483 1484 1485 1487 1489 1491 1493 1495 1497 1499 1502 1504 1506 1508 1510 1512 1514 1516 1518 1520 1522 1523 1524 1526 1527 1528 1529 1530 1530 1531 1532 1532 1533 1533